Theta_e
328 327 326 327 327 322 322 322 322 321 320 320 318 318 317 315 312 311 310 311 312 311 310 309 309 308 306 306 305 305 304 303 303 303 304 305 305 304 303 302 301 300 299
326 326 325 327 323 322 323 322 321 321 320 318 319 318 318 317 316 316 314 312 313 313 312 310 308 308 305 305 304 304 303 302 301 300 302 302 303 303 302 300 299 298 297
326 324 321 321 322 322 322 321 321 320 320 319 319 318 317 316 316 314 313 313 312 311 310 309 308 307 306 304 303 302 302 301 300 300 299 301 302 301 300 298 297 296 296
327 325 323 323 322 321 321 321 320 319 318 318 317 316 315 314 313 313 312 312 311 310 309 308 307 306 305 304 302 301 301 301 300 299 298 300 300 300 299 297 296 295 294
323 323 323 322 321 321 321 320 319 317 315 315 315 313 313 312 311 310 310 310 310 309 308 306 305 304 303 303 301 301 300 300 299 298 298 297 298 299 299 298 295 294 292
323 321 320 321 321 321 320 318 316 315 314 314 312 311 310 309 309 309 308 308 308 305 304 303 302 302 301 300 299 300 299 298 298 297 296 295 296 296 297 297 295 293 290
322 321 320 320 319 319 317 315 314 314 313 311 308 306 306 305 303 302 303 304 304 303 301 300 300 300 299 298 297 296 296 296 296 296 296 294 294 295 295 296 295 295 294
319 317 317 317 317 315 313 310 308 307 307 305 305 304 302 299 298 297 297 298 299 299 299 298 298 298 297 296 295 294 294 293 293 293 293 293 293 293 294 293 294 293 292
315 314 314 309 307 308 308 307 306 305 305 304 302 300 297 296 296 296 295 295 296 297 297 296 296 295 294 293 293 292 291 291 290 290 291 291 291 291 292 292 292 292 289
312 308 309 310 310 306 305 305 304 304 302 300 297 297 297 296 295 293 293 294 294 294 294 294 293 292 292 291 290 289 288 287 287 287 286 287 288 289 289 290 291 291 290
311 311 309 307 306 306 305 304 302 300 298 298 297 297 295 294 293 292 292 292 291 291 292 291 290 290 288 287 286 286 285 285 284 283 284 284 285 286 287 289 289 290 290
311 309 307 306 305 304 302 300 299 298 298 297 296 295 293 291 291 290 290 289 289 289 288 288 287 286 286 286 285 284 283 282 282 282 281 283 283 284 285 287 288 288 288
307 306 305 304 302 300 299 299 298 298 297 296 294 292 291 290 289 288 287 288 287 287 287 286 286 285 285 284 284 282 281 280 282 281 281 281 282 282 284 285 286 287 287
304 303 302 300 299 298 298 297 297 296 295 293 292 292 290 290 289 287 287 288 287 286 286 285 284 284 283 283 282 282 282 281 280 280 281 279 280 282 282 283 284 285 285
302 300 299 298 297 297 296 296 297 295 293 292 291 290 290 289 288 287 287 287 286 285 285 284 283 283 282 281 280 280 280 280 280 279 280 280 280 280 281 282 282 283 283
301 299 298 297 297 296 297 296 295 293 292 291 290 289 289 288 287 286 286 285 284 284 284 283 282 282 281 281 279 278 280 280 278 279 279 279 279 279 280 280 280 281 281
302 300 297 297 296 297 296 295 294 292 292 291 290 288 288 288 287 285 285 284 283 283 282 282 281 281 280 280 280 280 280 279 279 279 279 279 279 279 279 279 280 280 279
301 297 297 297 297 296 294 293 293 292 292 290 289 288 287 286 286 285 285 284 283 283 282 282 281 281 281 280 280 279 279 279 279 279 279 279 279 279 279 279 280 279 279
301 298 297 297 296 295 292 293 292 291 290 289 288 287 286 286 286 285 284 284 283 282 282 282 281 281 281 280 280 279 279 279 279 278 279 279 279 279 279 279 279 279 278
299 298 297 296 294 293 293 293 292 290 290 289 287 287 286 286 286 285 284 283 282 281 281 281 281 281 280 280 279 279 279 278 278 278 278 278 278 278 278 278 278 278 278
298 297 296 294 293 293 293 292 291 290 289 288 287 287 286 285 285 284 283 282 282 282 281 281 281 281 280 280 280 279 279 278 278 278 278 278 278 278 278 278 278 278 278
296 296 295 294 293 292 292 291 290 289 288 287 286 285 284 284 284 283 283 282 282 281 281 281 280 280 280 280 280 279 279 278 278 278 278 277 277 277 277 277 277 277 277
295 295 294 293 293 292 291 290 289 288 287 286 285 285 285 284 283 282 282 281 281 281 281 281 280 280 280 279 279 279 279 278 278 278 277 277 277 277 277 277 276 276 276
293 293 293 292 291 290 290 289 288 287 286 286 285 285 284 284 283 283 282 282 282 281 281 280 280 280 279 279 279 279 278 278 278 278 277 277 277 277 277 276 276 276 276
291 290 290 290 289 289 288 288 287 287 286 285 285 285 284 283 283 283 283 282 282 281 281 280 280 279 279 279 279 278 278 278 278 277 277 277 277 276 276 276 276 276 276
289 288 288 288 288 288 288 287 287 286 286 285 285 284 284 283 283 283 283 282 282 281 281 280 279 279 279 279 278 278 278 278 278 277 277 277 276 276 276 276 276 275 275
Wind_Speed
25 24 23 22 19 17 16 16 17 16 15 16 17 17 17 17 15 15 15 15 15 14 13 16 17 14 13 15 16 16 16 16 16 14 14 17 20 19 21 20 21 17 15
23 22 21 22 20 19 19 18 18 19 20 19 17 16 15 15 16 17 18 18 18 19 18 16 17 18 16 15 16 16 16 16 17 14 14 15 20 20 21 22 19 16 13
24 23 24 24 21 20 20 20 20 20 20 17 15 14 15 17 18 19 20 19 20 21 22 22 21 22 23 20 20 18 17 16 18 17 16 13 18 20 21 22 19 16 13
30 29 26 26 24 21 21 21 20 18 18 21 22 22 22 22 21 23 24 23 22 23 24 22 21 21 22 23 20 21 19 18 18 20 18 14 17 20 23 23 20 17 14
32 32 29 28 27 25 23 20 19 17 17 20 19 20 21 23 23 23 23 23 22 24 22 23 22 24 25 22 19 20 18 19 20 20 20 20 19 22 25 24 24 19 15
35 33 32 31 28 24 21 19 19 16 17 21 19 22 21 22 25 23 23 22 21 24 22 22 24 24 23 21 19 19 19 20 23 22 19 19 19 20 24 27 27 23 21
36 31 28 25 20 16 15 14 13 14 18 17 15 20 25 24 25 21 20 20 19 21 21 22 24 22 20 19 17 20 21 20 20 22 21 19 20 20 22 30 28 30 27
32 26 19 16 11 8 5 3 9 13 16 20 24 24 23 21 22 21 18 17 18 20 20 19 18 16 17 16 18 18 17 18 18 18 20 19 20 23 23 23 25 33 28
24 20 16 10 5 6 19 20 26 24 23 23 22 20 18 16 18 17 13 10 11 14 15 15 15 15 16 16 16 17 17 18 19 19 20 22 22 21 21 24 30 30 29
25 12 7 12 22 17 19 21 21 25 23 18 16 14 15 14 12 10 8 7 10 13 14 14 14 13 14 15 14 14 15 15 14 13 14 16 19 21 19 22 30 33 32
9 17 17 14 16 14 17 19 19 17 14 12 13 12 12 12 9 6 7 8 9 11 12 11 11 10 9 9 9 8 9 10 11 11 10 10 11 12 13 17 23 28 30
17 20 19 15 18 17 16 15 14 13 12 11 9 10 9 10 7 7 8 8 9 7 4 4 4 4 4 5 5 5 5 5 7 9 6 5 4 4 6 9 16 19 20
20 17 17 16 15 14 14 14 12 11 11 10 8 10 11 9 9 9 10 12 10 6 5 4 3 3 3 3 4 2 2 3 5 5 5 4 3 2 3 2 7 12 15
19 17 15 14 14 13 9 7 9 10 10 10 10 9 11 9 8 10 8 9 8 8 6 3 2 2 2 2 1 1 1 2 4 4 4 3 1 3 7 6 5 8 10
16 14 12 11 9 6 4 5 8 9 7 7 8 9 10 9 7 7 6 7 7 7 5 3 2 1 1 2 2 2 2 3 5 5 6 6 4 4 3 5 6 7 7
13 12 12 11 9 8 9 10 10 7 5 8 10 11 8 8 7 7 4 5 6 5 4 2 2 3 4 2 0 1 1 2 4 5 7 7 6 5 3 4 3 3 3
8 9 11 12 14 12 11 10 7 8 9 12 12 11 10 9 8 7 4 6 6 5 5 4 4 4 5 3 2 3 3 2 3 5 6 7 7 5 5 6 7 6 5
7 8 12 15 13 11 9 8 7 10 11 11 11 10 10 10 10 8 7 8 9 8 6 3 1 1 1 1 1 1 3 3 2 3 4 5 5 4 4 3 2 3 5
11 11 13 14 12 8 6 7 10 13 12 10 12 12 11 10 11 11 10 7 6 8 7 5 3 3 2 2 0 1 1 2 4 5 4 3 3 2 2 2 1 3 3
12 11 13 12 10 8 9 10 14 15 13 10 11 14 12 12 13 13 11 10 10 8 8 8 7 5 4 4 1 1 2 3 5 5 4 4 4 4 5 4 3 2 3
14 13 13 13 13 12 13 14 15 16 14 11 10 10 10 9 8 10 12 12 11 9 6 6 7 7 6 6 5 4 3 3 4 5 4 2 3 5 5 5 4 5 4
17 16 15 14 14 14 15 14 15 15 13 12 11 11 12 10 10 12 14 11 10 9 8 7 6 5 5 5 5 4 3 4 3 4 6 4 4 4 4 3 6 8 7
16 16 15 13 13 14 14 15 16 15 12 11 11 12 13 14 11 10 11 8 4 6 9 9 8 8 7 6 6 5 3 3 3 2 4 5 5 6 6 3 3 4 6
14 12 12 11 12 14 15 16 16 14 12 12 11 11 9 14 14 11 9 7 6 6 6 8 8 8 6 6 6 5 5 4 4 3 3 5 7 7 8 7 5 5 6
12 11 12 13 15 16 15 15 15 15 14 14 13 13 12 13 15 13 12 9 8 9 9 7 9 9 7 8 7 7 7 5 5 5 5 5 7 8 8 9 7 8 8
14 13 14 15 15 16 16 17 17 16 17 15 14 14 14 13 17 14 13 11 11 11 11 9 9 11 10 10 8 7 7 8 8 7 7 5 8 8 9 10 10 9 9
Wind_Direction
193 196 201 208 216 223 233 238 245 243 236 246 253 255 253 261 263 265 278 283 286 287 286 284 286 284 271 283 280 282 285 288 284 276 260 262 258 252 248 247 249 258 264
202 206 213 217 221 226 237 240 236 244 256 262 258 250 260 268 268 270 279 281 287 289 290 274 275 272 274 269 283 278 276 288 290 279 271 259 262 252 246 249 246 248 252
209 213 215 217 221 229 239 241 241 248 257 257 249 249 251 254 256 263 270 270 269 274 276 273 268 269 274 278 283 284 279 284 289 290 280 264 252 245 234 236 241 244 247
213 216 215 219 225 229 227 227 236 244 243 246 245 247 248 250 256 263 268 269 263 273 276 277 274 278 284 286 284 277 270 277 273 279 274 259 249 238 234 236 237 236 241
209 212 212 217 223 222 225 227 228 233 249 258 262 256 258 263 263 265 269 275 277 275 275 277 280 284 284 278 278 271 268 275 273 266 266 262 244 234 234 238 237 235 230
216 210 211 210 212 216 223 225 222 230 250 263 270 262 268 272 270 270 273 272 270 278 275 282 284 281 280 285 279 273 278 275 269 264 260 256 251 246 237 240 232 222 217
215 207 198 198 202 207 210 213 237 255 251 260 279 281 273 273 275 275 270 269 269 270 270 275 276 279 278 280 277 286 278 276 266 261 260 252 252 246 246 239 236 240 237
195 184 183 191 189 194 214 293 305 288 279 289 281 276 278 280 281 280 275 270 269 269 272 272 271 270 273 276 279 274 275 273 271 267 260 253 243 239 238 250 257 244 233
172 175 159 147 149 267 298 272 257 265 272 276 275 277 282 283 285 287 280 276 273 270 266 265 269 270 277 271 272 279 281 279 275 271 266 262 261 249 242 239 240 240 227
158 163 235 285 307 290 241 261 267 271 271 271 276 285 287 291 291 289 289 264 265 267 266 263 264 265 267 271 276 276 278 281 281 281 277 269 265 263 256 238 243 238 228
255 279 272 252 218 231 261 260 258 258 263 271 277 279 286 297 293 262 259 265 268 262 262 260 264 270 272 275 281 279 282 284 298 308 297 285 278 264 248 233 234 240 237
257 233 213 215 245 244 239 241 245 253 261 272 272 275 287 292 269 259 250 252 259 264 266 275 274 271 278 289 291 293 295 301 316 325 325 322 305 270 248 235 227 229 237
202 208 224 219 215 221 228 235 245 263 273 277 281 288 289 271 263 258 259 235 242 241 262 289 305 301 300 305 307 309 325 328 328 346 350 356 2 138 110 183 205 215 221
207 200 200 207 214 220 233 263 286 294 292 294 300 274 275 269 266 270 269 221 226 227 237 265 275 286 313 301 197 133 38 44 28 359 327 337 8 154 154 132 147 187 180
194 200 206 214 219 221 242 277 288 294 295 287 281 271 270 266 265 274 279 212 208 216 222 222 246 276 111 141 111 111 82 24 4 46 64 57 71 85 131 174 174 167 174
199 207 211 210 205 209 245 266 290 302 294 270 274 268 254 247 240 257 267 200 172 163 179 187 150 87 91 103 214 194 36 35 62 80 77 75 73 82 91 90 102 171 188
198 207 208 215 215 233 262 275 260 273 259 254 256 260 238 235 232 241 235 192 197 193 152 107 96 92 67 86 138 156 136 134 139 125 104 85 85 87 100 91 79 90 119
211 230 230 224 230 248 260 246 277 261 258 261 254 244 223 219 225 227 218 204 202 196 184 170 143 91 78 61 107 94 120 130 162 153 140 120 110 98 121 105 109 111 82
219 224 223 223 241 244 256 264 260 244 249 256 235 230 222 223 216 215 213 209 208 201 214 220 234 249 255 258 51 32 306 279 285 218 221 189 203 148 161 181 133 127 135
218 219 227 233 226 227 264 267 242 234 239 245 242 234 228 221 212 210 205 204 191 196 219 236 234 228 237 239 222 275 331 310 219 224 218 233 230 226 209 202 216 203 170
225 228 225 219 223 236 256 245 235 232 236 242 245 233 221 209 205 210 200 196 199 195 210 230 226 223 237 242 240 251 269 241 202 206 194 219 244 234 220 208 221 217 216
228 227 223 223 229 239 234 226 223 228 232 235 236 218 197 189 192 197 192 199 219 228 226 237 243 235 245 245 239 245 247 222 218 204 207 219 219 235 225 235 236 244 233
220 218 225 232 227 222 215 216 221 222 226 228 224 208 199 183 174 167 188 205 201 219 238 240 246 242 248 236 223 225 230 219 240 217 222 224 210 215 217 205 208 210 216
222 234 234 225 211 216 217 215 213 213 220 215 207 202 200 200 192 183 191 206 234 265 287 252 239 226 228 223 222 227 239 245 243 244 251 245 238 230 229 219 217 230 242
221 224 218 210 208 215 211 211 214 214 219 210 208 212 213 212 211 215 216 222 239 255 267 270 243 230 222 230 233 241 248 248 236 242 254 250 247 248 242 241 241 248 252
213 215 208 209 211 210 213 213 216 220 215 212 213 217 225 228 218 221 216 232 246 257 272 261 238 224 224 230 242 245 231 233 235 234 241 247 238 247 246 248 249 253 259